Hourly Data Report for October 19, 2016

All times are specified in Local Standard Time (LST). Add 1 hour to adjust for Daylight Saving Time where and when it is observed.

KUGLUKTUK A
NUNAVUT

67°49'00.000" N
115°08'38.000" W
22.60 m
2300903
71938
YCO

Download Data

Hourly Data (October 2016)
Hourly Data Report for October 19, 2016
Temp Definition
°C
Dew Point Temp Definition
°C
Rel Hum Definition
%
Wind Dir Definition
10's deg

Wind Spd Definition
km/h
Visibility Definition
km
Stn Press Definition
kPa
Hmdx Definition


Wind Chill Definition


Weather Definition


TIME
00:00 Legend Double Dagger -8.2 -9.9 88 25 30 19.3 101.05   -17 Snow,Blowing Snow
01:00 Legend Double Dagger -3.9 -5.3 90 34 29 6.4 101.10   -11 Freezing Drizzle,Snow,Blowing Snow
02:00 Legend Double Dagger -4.5 -6.3 87 34 33 9.7 101.18   -13 Snow,Blowing Snow
03:00 Legend Double Dagger -5.0 -7.8 81 35 32 19.3 101.26   -13 Blowing Snow
04:00 Legend Double Dagger -6.0 -8.3 84 35 33 16.1 101.32   -15 Snow,Blowing Snow
05:00 Legend Double Dagger -6.3 -8.6 84 35 31 19.3 101.40   -15 Snow,Blowing Snow
06:00
07:00 Legend Double Dagger -6.7 -9.0 84 36 18 19.3 101.50   -13 Snow,Blowing Snow
08:00 Legend Double Dagger -6.4 -9.0 82 32 14 24.1 101.53   -12 Cloudy
09:00 Legend Double Dagger -7.5 -10.1 82 26 15 24.1 101.56   -14 LegendNANA
10:00 Legend Double Dagger -7.7 -10.4 81 27 17 24.1 101.57   -14 LegendNANA
11:00 Legend Double Dagger -7.5 -10.2 81 27 14 24.1 101.60   -13 Snow Grains
12:00 Legend Double Dagger -7.5 -9.9 83 28 12 24.1 101.62   -13 Snow Grains
13:00 Legend Double Dagger -7.6 -10.0 83 28 16 24.1 101.63   -14 Snow Grains
14:00 Legend Double Dagger -7.8 -10.4 82 28 15 24.1 101.59   -14 Snow Grains
15:00 Legend Double Dagger -8.1 -10.0 86 21 12 24.1 101.55   -14 Snow Grains
16:00 Legend Double Dagger -8.2 -10.1 86 23 9 24.1 101.56   -13 Snow Grains
17:00 Legend Double Dagger -8.2 -10.0 87 36 2 24.1 101.51   -9 Snow Grains
18:00 Legend Double Dagger -7.5 -9.2 88 15 5 24.1 101.48   -10 Snow Grains
19:00 Legend Double Dagger -6.6 -8.4 87 12 12 24.1 101.44   -12 Snow Grains
20:00 Legend Double Dagger -6.5 -8.2 88 12 13 24.1 101.38   -12 Snow
21:00 Legend Double Dagger -6.1 -8.2 85 11 16 24.1 101.33   -12 Snow
22:00 Legend Double Dagger -6.3 -8.9 82 11 17 24.1 101.30   -13 LegendNANA
23:00 Legend Double Dagger -7.3 -9.6 84 12 13 24.1 101.25   -13 Snow

Notes on Data Quality.

Legend

  • E = Estimated
  • M = Missing
  • NA = Not Available
  • ‡ = Partner data that is not subject to review by the National Climate Archives
Date modified: